1520049601.15,15786,8.38,71032.5,-12.75,-40.59,-40.79,0,*6E
1520049602.42,15787,8.38,71036.0,-12.77,-40.79,-40.97,0,*6F
1520049603.68,15788,8.38,71036.5,-12.75,-40.73,-40.79,0,*68
1520049604.96,15789,8.38,71036.3,-12.75,-40.59,-40.79,0,*61
1520049606.2,15790,8.38,71036.0,-12.77,-40.53,-40.59,0,*63
1520049607.4,15791,8.38,71036.8,-12.77,-40.47,-40.35,0,*6D
1520049608.7,15792,8.38,71040.8,-12.75,-40.41,-40.41,0,*69
1520049609.99,15793,8.38,71042.5,-12.75,-40.41,-40.59,0,*61
1520049611.26,15794,8.38,71040.8,-12.77,-40.41,-40.41,0,*6D
1520049612.53,15795,8.38,71038.5,-12.75,-40.09,-40.15,0,*63
1520049613.82,15796,8.38,71042.5,-12.75,-40.09,-40.29,0,*6F
1520049615.08,15797,8.38,71044.5,-12.77,-40.21,-40.21,0,*6E
1520049616.35,15798,8.38,71046.5,-12.73,-40.09,-40.29,0,*67
1520049617.56,15799,8.38,71040.5,-12.77,-40.03,-40.15,0,*67
1520049618.85,15800,8.38,71040.0,-12.75,-39.79,-39.97,0,*6D
1520049620.15,15801,8.38,71036.8,-12.75,-39.79,-39.79,0,*6C
1520049621.44,15802,8.38,71032.8,-12.75,-39.41,-39.53,0,*6C
1520049622.74,15803,8.38,71032.0,-12.75,-39.59,-39.79,0,*6C
1520049623.96,15804,8.38,71028.0,-12.69,-39.65,-39.65,0,*64
1520049625.2,15805,8.38,71024.5,-12.69,-39.71,-39.85,0,*6E
1520049626.42,15806,8.38,71018.8,-12.69,-39.85,-39.91,0,*63
1520049627.69,15807,8.38,71024.0,-12.73,-40.09,-40.29,0,*6E
1520049628.93,15808,8.38,71028.8,-12.69,-40.03,-40.09,0,*62
1520049630.15,15809,8.38,71028.0,-12.69,-39.91,-39.91,0,*69
1520049631.39,15810,8.38,71022.8,-12.69,-39.65,-39.71,0,*64
1520049632.63,15811,8.38,71014.8,-12.69,-39.53,-39.65,0,*65
1520049633.85,15812,8.38,71012.3,-12.67,-39.65,-39.85,0,*63
1520049635.1,15813,8.38,71008.5,-12.67,-39.85,-39.71,0,*67
1520049636.32,15814,8.38,71008.3,-12.67,-40.03,-40.03,0,*6B
1520049637.55,15815,8.38,71014.8,-12.67,-40.21,-40.15,0,*6D
1520049638.83,15816,8.38,71022.0,-12.67,-40.41,-40.41,0,*69
1520049640.05,15817,8.38,71028.8,-12.67,-40.47,-40.53,0,*6D
1520049641.26,15818,8.38,71032.0,-12.67,-40.47,-40.73,0,*60
1520049642.51,15819,8.38,71032.3,-12.67,-40.47,-40.59,0,*69
1520049643.72,15820,8.38,71034.0,-12.67,-40.53,-40.65,0,*69
1520049644.94,15821,8.38,71036.0,-12.67,-40.47,-40.53,0,*68
1520049646.15,15822,8.38,71030.8,-12.69,-40.53,-40.73,0,*62
1520049647.36,15823,8.38,71032.8,-12.69,-40.65,-40.73,0,*66
1520049648.56,15824,8.38,71032.0,-12.69,-40.65,-40.73,0,*61
1520049649.77,15825,8.38,71036.0,-12.69,-40.53,-40.53,0,*67
1520049650.99,15826,8.38,71034.0,-12.67,-40.53,-40.53,0,*6A
1520049652.2,15827,8.38,71030.5,-12.69,-40.53,-40.53,0,*65
1520049653.41,15828,8.38,71028.5,-12.69,-40.53,-40.53,0,*6A
1520049654.62,15829,8.38,71030.5,-12.69,-40.47,-40.47,0,*6B
1520049655.83,15830,8.38,71032.8,-12.69,-40.35,-40.35,0,*63
1520049657.04,15831,8.38,71032.0,-12.73,-40.53,-40.53,0,*69
1520049658.29,15832,8.38,71034.3,-12.69,-40.29,-40.29,0,*61
1520049659.56,15833,8.38,71028.8,-12.69,-40.21,-40.09,0,*6A
1520049660.8,15834,8.38,71030.0,-12.69,-39.91,-40.09,0,*68
1520049662.02,15835,8.38,71026.8,-12.69,-40.03,-39.91,0,*63
1520049663.23,15836,8.38,71026.5,-12.69,-40.03,-40.03,0,*65
1520049664.47,15837,8.38,71024.8,-12.73,-40.15,-40.29,0,*60
1520049665.73,15838,8.38,71018.5,-12.67,-40.21,-40.21,0,*65
1520049667.0,15839,8.44,71016.5,-12.67,-40.21,-40.09,0,*6E
1520049668.24,15840,8.38,71012.0,-12.67,-39.97,-40.03,0,*69
1520049669.48,15841,8.38,71016.3,-12.67,-40.03,-40.21,0,*6B
1520049670.71,15842,8.38,71010.8,-12.67,-40.15,-40.15,0,*68
1520049671.97,15843,8.38,71014.8,-12.67,-40.21,-40.21,0,*69
1520049673.21,15844,8.38,71014.3,-12.67,-40.21,-40.35,0,*6B
1520049674.42,15845,8.38,71026.0,-12.67,-40.35,-40.35,0,*6F
1520049675.66,15846,8.38,71020.0,-12.67,-40.03,-40.21,0,*6C
1520049676.93,15847,8.38,71020.5,-12.67,-40.21,-40.21,0,*6D
1520049678.19,15848,8.38,71010.5,-12.67,-40.29,-40.29,0,*62
1520049679.43,15849,8.38,71016.5,-12.67,-40.41,-40.47,0,*65
1520049680.68,15850,8.38,71020.3,-12.67,-40.03,-40.21,0,*6B
1520049681.92,15851,8.38,71020.8,-12.67,-39.97,-40.03,0,*69
1520049683.15,15852,8.38,71022.5,-12.67,-40.21,-40.03,0,*69
1520049684.4,15853,8.38,71012.3,-12.67,-40.15,-40.21,0,*6F
1520049685.66,15854,8.38,71006.3,-12.67,-40.21,-40.29,0,*67
1520049686.93,15855,8.38,71004.5,-12.67,-40.29,-40.29,0,*6E
1520049688.15,15856,8.38,71020.8,-12.67,-40.03,-40.15,0,*6A
1520049689.38,15857,8.38,71028.8,-12.67,-39.97,-40.03,0,*6F
1520049690.61,15858,8.38,71030.5,-12.67,-40.15,-40.15,0,*63
1520049691.87,15859,8.38,71026.8,-12.67,-40.21,-40.21,0,*62
1520049693.16,15860,8.38,71026.0,-12.65,-40.21,-40.21,0,*6A
1520049694.42,15861,8.38,71020.5,-12.67,-40.29,-40.29,0,*69
1520049695.71,15862,8.38,71022.3,-12.65,-40.29,-40.29,0,*68
1520049696.96,15863,8.38,71014.5,-12.67,-40.41,-40.47,0,*6D
1520049698.2,15864,8.38,71018.5,-12.67,-40.65,-40.85,0,*62
1520049699.47,15865,8.38,71018.5,-12.67,-40.59,-40.85,0,*6C
1520049700.73,15866,8.38,71018.5,-12.67,-40.59,-40.79,0,*6C
1520049701.98,15867,8.38,71016.8,-12.67,-40.65,-40.85,0,*61
1520049703.25,15868,8.38,71026.0,-12.67,-40.79,-40.85,0,*63
1520049704.47,15869,8.38,71020.0,-12.67,-40.91,-41.03,0,*6B
1520049705.7,15870,8.38,71040.3,-12.67,-40.91,-41.11,0,*60
1520049706.95,15871,8.38,71036.3,-12.67,-40.85,-41.03,0,*67
1520049708.19,15872,8.38,71030.5,-12.67,-40.65,-40.85,0,*65
1520049709.4,15873,8.38,71032.5,-12.67,-40.65,-40.65,0,*6A
1520049710.61,15874,8.44,71030.0,-12.69,-40.53,-40.65,0,*66
1520049711.81,15875,8.38,71028.0,-12.69,-40.53,-40.47,0,*67
1520049713.03,15876,8.38,71028.8,-12.69,-40.47,-40.47,0,*61
1520049714.24,15877,8.38,71024.5,-12.69,-40.47,-40.53,0,*65
1520049715.45,15878,8.38,71026.5,-12.69,-40.53,-40.65,0,*6A
1520049716.65,15879,8.38,71030.0,-12.69,-40.53,-40.65,0,*6B
1520049717.87,15880,8.38,71014.5,-12.69,-40.35,-40.47,0,*6D
1520049719.08,15881,8.38,71020.8,-12.69,-40.65,-40.91,0,*62
1520049720.32,15882,8.38,71034.3,-12.73,-40.79,-40.91,0,*67
1520049721.52,15883,8.38,71026.0,-12.69,-40.65,-40.65,0,*6B
1520049722.73,15884,8.38,71022.5,-12.69,-40.65,-40.65,0,*6C
1520049723.94,15885,8.38,71026.0,-12.73,-40.73,-40.73,0,*66
1520049725.17,15886,8.38,71026.8,-12.69,-40.29,-40.47,0,*66
1520049726.43,15887,8.38,71028.5,-12.73,-40.29,-40.29,0,*64
1520049727.66,15888,8.38,71024.3,-12.73,-40.29,-40.35,0,*66
1520049728.9,15889,8.38,71028.3,-12.69,-40.09,-40.35,0,*6E
1520049730.16,15890,8.38,71030.5,-12.73,-40.29,-40.29,0,*62
1520049731.4,15891,8.38,71026.8,-12.67,-40.03,-40.09,0,*6C
1520049732.65,15892,8.38,71034.0,-12.67,-39.91,-40.09,0,*6A
1520049733.91,15893,8.38,71032.5,-12.67,-39.85,-40.09,0,*6E
1520049735.16,15894,8.38,71032.5,-12.67,-39.71,-39.91,0,*6D
1520049736.38,15895,8.38,71028.3,-12.67,-39.65,-39.91,0,*69
1520049737.6,15896,8.38,71022.8,-12.67,-39.85,-40.03,0,*61
1520049738.85,15897,8.38,71026.5,-12.67,-39.79,-40.03,0,*63
1520049740.1,15898,8.38,71028.5,-12.67,-39.91,-40.09,0,*60
1520049741.35,15899,8.38,71030.3,-12.67,-39.79,-40.03,0,*6D
1520049742.6,15900,8.38,71030.0,-12.67,-39.79,-39.85,0,*6C
1520049743.85,15901,8.38,71028.8,-12.67,-39.79,-39.85,0,*6D
1520049745.13,15902,8.38,71030.0,-12.67,-39.79,-39.97,0,*6D
1520049746.4,15903,8.38,71034.3,-12.65,-40.03,-40.21,0,*6E
1520049747.68,15904,8.38,71034.0,-12.63,-39.79,-39.97,0,*6F
1520049748.98,15905,8.38,71024.3,-12.65,-39.79,-39.97,0,*68
1520049750.21,15906,8.38,71018.8,-12.63,-39.91,-40.15,0,*6F
1520049751.46,15907,8.38,71016.5,-12.63,-40.09,-40.35,0,*63
1520049752.75,15908,8.38,71022.3,-12.65,-40.41,-40.59,0,*6C
1520049753.99,15909,8.38,71028.8,-12.65,-40.47,-40.65,0,*64
1520049755.26,15910,8.38,71024.8,-12.65,-40.47,-40.79,0,*61
1520049756.55,15911,8.38,71026.5,-12.65,-40.29,-40.59,0,*6A
1520049757.82,15912,8.38,71026.5,-12.65,-40.41,-40.65,0,*68
1520049759.09,15913,8.44,71030.5,-12.65,-40.65,-40.97,0,*62
1520049760.35,15914,8.38,71034.3,-12.65,-40.65,-40.97,0,*65
1520049761.6,15915,8.38,71036.5,-12.67,-40.65,-40.85,0,*65
1520049762.87,15916,8.38,71028.8,-12.67,-40.41,-40.59,0,*61
1520049764.12,15917,8.38,71008.8,-12.67,-40.41,-40.65,0,*6F
1520049765.36,15918,8.38,71032.3,-12.67,-40.53,-40.85,0,*6D
1520049766.6,15919,8.38,71034.0,-12.67,-40.53,-40.85,0,*6C
1520049767.84,15920,8.38,71032.8,-12.67,-40.29,-40.65,0,*65
1520049769.06,15921,8.38,71032.3,-12.67,-40.35,-40.65,0,*69
1520049770.33,15922,8.38,71034.5,-12.67,-40.41,-40.59,0,*66
1520049771.55,15923,8.38,71032.8,-12.67,-40.47,-40.73,0,*69
1520049772.79,15924,8.38,71034.0,-12.67,-40.29,-40.65,0,*61
1520049774.05,15925,8.38,71034.0,-12.67,-40.15,-40.41,0,*69
1520049775.31,15926,8.38,71028.3,-12.67,-39.97,-40.21,0,*68
1520049776.55,15927,8.38,71032.8,-12.67,-40.21,-40.53,0,*6F
1520049777.82,15928,8.38,71036.8,-12.67,-40.41,-40.79,0,*6E
1520049779.04,15929,8.38,71038.0,-12.67,-40.47,-40.65,0,*64
1520049780.28,15930,8.38,71038.0,-12.67,-40.21,-40.47,0,*6C
1520049781.52,15931,8.38,71024.3,-12.67,-39.53,-39.91,0,*63
1520049782.74,15932,8.38,71022.3,-12.67,-39.85,-40.03,0,*6E
1520049783.99,15933,8.38,71024.3,-12.67,-39.79,-40.15,0,*6B
1520049785.26,15934,8.38,71018.0,-12.67,-39.97,-40.21,0,*6B
1520049786.48,15935,8.38,71026.0,-12.67,-40.15,-40.47,0,*6E
1520049787.76,15936,8.38,71022.3,-12.67,-40.41,-40.59,0,*63
1520049789.04,15937,8.38,71022.8,-12.67,-40.41,-40.59,0,*62
1520049790.31,15938,8.38,71026.3,-12.67,-40.41,-40.79,0,*6F
1520049791.59,15939,8.38,71032.3,-12.67,-40.41,-40.97,0,*6E
1520049792.83,15940,8.38,71032.3,-12.67,-40.47,-40.85,0,*65
1520049794.06,15941,8.38,71032.5,-12.67,-40.47,-40.91,0,*61
1520049795.28,15942,8.38,71036.0,-12.67,-40.65,-40.91,0,*62
1520049796.52,15943,8.38,71034.8,-12.67,-40.47,-40.85,0,*66
1520049797.74,15944,8.38,71032.3,-12.67,-40.53,-40.91,0,*61
1520049798.98,15945,8.38,71032.8,-12.67,-40.53,-40.85,0,*65
1520049800.23,15946,8.38,71034.5,-12.67,-40.09,-40.47,0,*67
1520049801.44,15947,8.38,71038.5,-12.67,-40.03,-40.35,0,*69
1520049802.7,15948,8.38,71036.8,-12.67,-40.15,-40.29,0,*6C
1520049803.96,15949,8.38,71028.3,-12.67,-40.29,-40.79,0,*67
1520049805.2,15950,8.38,71022.0,-12.67,-40.53,-40.85,0,*61
1520049806.45,15951,8.38,71020.8,-12.67,-40.47,-40.85,0,*65
1520049807.66,15952,8.38,71022.5,-12.67,-40.53,-41.11,0,*6F
1520049808.88,15953,8.38,71030.0,-12.69,-40.53,-41.03,0,*63
1520049810.09,15954,8.38,71032.3,-12.69,-40.53,-41.03,0,*64
1520049811.31,15955,8.38,71036.5,-12.69,-40.53,-40.91,0,*6F
1520049812.52,15956,8.38,71036.8,-12.69,-40.53,-41.03,0,*66
1520049813.74,15957,8.38,71038.8,-12.69,-40.53,-40.91,0,*6D
1520049814.94,15958,8.38,71032.8,-12.73,-40.53,-40.73,0,*65
1520049816.18,15959,8.38,71034.3,-12.69,-40.29,-40.53,0,*60
1520049817.44,15960,8.38,71028.5,-12.73,-40.41,-40.79,0,*67
1520049818.71,15961,8.38,71034.0,-12.73,-40.59,-40.97,0,*6F
1520049819.95,15962,8.38,71040.8,-12.73,-40.59,-41.11,0,*63
1520049821.19,15963,8.38,71034.3,-12.69,-40.47,-40.85,0,*6A
1520049822.4,15964,8.38,71034.3,-12.69,-40.47,-40.73,0,*64
1520049823.64,15965,8.38,71034.3,-12.69,-40.29,-40.65,0,*6A
1520049824.89,15966,8.38,71028.5,-12.73,-40.15,-40.59,0,*62
1520049826.16,15967,8.38,71030.8,-12.69,-39.71,-40.21,0,*6B
1520049827.43,15968,8.38,71032.8,-12.73,-39.79,-40.29,0,*6F
1520049828.67,15969,8.38,71030.8,-12.73,-39.71,-40.15,0,*69
1520049829.94,15970,8.38,71032.8,-12.69,-39.53,-40.09,0,*67
1520049831.18,15971,8.38,71036.5,-12.69,-39.53,-39.91,0,*69
1520049832.41,15972,8.38,71032.3,-12.69,-39.53,-39.91,0,*6A
1520049833.65,15973,8.38,71026.5,-12.67,-39.53,-40.03,0,*60
1520049834.91,15974,8.38,71032.3,-12.67,-39.65,-40.09,0,*68
1520049836.15,15975,8.44,71032.5,-12.67,-39.85,-40.21,0,*6D
1520049837.37,15976,8.38,71022.8,-12.67,-39.65,-40.03,0,*60
1520049838.65,15977,8.38,71024.3,-12.67,-39.59,-40.09,0,*64
1520049839.9,15978,8.38,71026.3,-12.67,-39.59,-40.03,0,*61
1520049841.15,15979,8.38,71024.0,-12.67,-39.59,-40.03,0,*60
1520049842.4,15980,8.38,71026.3,-12.67,-39.59,-40.03,0,*66
1520049843.62,15981,8.38,71028.3,-12.67,-39.47,-39.85,0,*68
1520049844.87,15982,8.38,71030.8,-12.67,-39.23,-39.65,0,*67
1520049846.11,15983,8.38,71032.5,-12.67,-38.97,-39.29,0,*60
1520049847.34,15984,8.38,71030.5,-12.67,-38.97,-39.29,0,*67
1520049848.62,15985,8.38,71024.8,-12.63,-38.79,-39.15,0,*6D
1520049849.86,15986,8.38,71024.5,-12.63,-39.35,-39.71,0,*65
1520049851.14,15987,8.38,71022.0,-12.63,-39.71,-40.21,0,*6F
1520049852.37,15988,8.38,71026.0,-12.63,-39.91,-40.35,0,*6B
1520049853.63,15989,8.38,71016.0,-12.63,-39.79,-40.15,0,*6E
1520049854.9,15990,8.38,71012.8,-12.63,-39.41,-39.97,0,*69
1520049856.17,15991,8.38,71010.8,-12.59,-39.97,-40.41,0,*6F
1520049857.45,15992,8.38,71004.8,-12.59,-40.09,-40.59,0,*6C
1520049858.7,15993,8.38,71008.3,-12.57,-40.15,-40.65,0,*61
1520049859.93,15994,8.38,71018.8,-12.59,-40.15,-40.73,0,*6F
1520049861.17,15995,8.38,71020.0,-12.59,-40.21,-40.73,0,*69
1520049862.41,15996,8.38,71020.3,-12.63,-40.21,-40.73,0,*63
1520049863.69,15997,8.38,71022.3,-12.63,-40.41,-40.79,0,*6E
1520049864.99,15998,8.38,71022.3,-12.65,-40.41,-40.85,0,*64
1520049866.24,15999,8.38,71018.0,-12.63,-40.35,-40.97,0,*63
1520049867.49,16000,8.38,71018.5,-12.65,-40.47,-41.03,0,*66
1520049868.74,16001,8.38,71028.3,-12.65,-40.47,-41.03,0,*67
1520049869.98,16002,8.38,71024.0,-12.65,-40.47,-41.03,0,*64
1520049871.23,16003,8.38,71024.0,-12.65,-40.47,-41.03,0,*65
1520049872.48,16004,8.38,71024.8,-12.65,-40.47,-41.03,0,*62
1520049873.75,16005,8.38,71030.3,-12.65,-40.59,-41.03,0,*6C
1520049875.02,16006,8.38,71022.5,-12.67,-40.59,-40.97,0,*61
1520049876.28,16007,8.38,71020.3,-12.67,-40.41,-41.03,0,*65
1520049877.53,16008,8.38,71022.0,-12.67,-40.59,-41.03,0,*63
1520049878.8,16009,8.38,71024.5,-12.67,-40.59,-41.23,0,*60
1520049880.07,16010,8.38,71024.5,-12.67,-40.59,-40.97,0,*66
1520049881.29,16011,8.38,71022.5,-12.67,-40.53,-41.03,0,*61
1520049882.51,16012,8.38,71022.5,-12.67,-40.47,-41.11,0,*64
1520049883.72,16013,8.38,71020.3,-12.67,-40.53,-41.11,0,*60
1520049884.94,16014,8.38,71020.5,-12.67,-40.53,-41.11,0,*67
1520049886.16,16015,8.38,71022.8,-12.67,-40.47,-41.11,0,*63
1520049887.38,16016,8.38,71024.8,-12.67,-40.53,-41.11,0,*65
1520049888.59,16017,8.38,71024.0,-12.67,-40.53,-41.03,0,*67
1520049889.81,16018,8.38,71030.5,-12.67,-40.53,-41.03,0,*68
1520049891.03,16019,8.38,71030.3,-12.67,-40.47,-41.11,0,*6F
1520049892.25,16020,8.38,71030.0,-12.69,-40.47,-41.11,0,*6B
1520049893.49,16021,8.38,71028.5,-12.73,-40.59,-41.17,0,*68
1520049894.72,16022,8.38,71030.5,-12.73,-40.59,-41.17,0,*6B
1520049895.96,16023,8.38,71030.0,-12.73,-40.59,-41.17,0,*6A
1520049897.17,16024,8.38,71030.8,-12.69,-40.53,-41.03,0,*69
1520049898.38,16025,8.38,71034.5,-12.73,-40.53,-41.11,0,*60
1520049899.59,16026,8.38,71034.8,-12.69,-40.53,-41.11,0,*68
1520049900.82,16027,8.38,71030.0,-12.73,-40.59,-41.17,0,*6E
1520049902.09,16028,8.38,71030.8,-12.75,-40.59,-41.17,0,*67
1520049903.32,16029,8.38,71032.8,-12.75,-40.73,-41.29,0,*63
1520049904.59,16030,8.38,71034.3,-12.75,-40.59,-41.17,0,*6E
1520049905.82,16031,8.44,71038.5,-12.75,-40.53,-41.17,0,*65
1520049907.05,16032,8.38,71034.8,-12.77,-40.65,-41.23,0,*66
1520049908.29,16033,8.38,71038.0,-12.77,-40.65,-41.23,0,*67
1520049909.49,16034,8.38,71040.8,-12.77,-40.53,-41.11,0,*64
1520049910.74,16035,8.38,71034.3,-12.77,-40.47,-40.97,0,*6F
1520049911.99,16036,8.38,71030.8,-12.77,-40.21,-40.79,0,*6C
1520049913.22,16037,8.38,71028.0,-12.77,-39.97,-40.47,0,*63
1520049914.47,16038,8.38,71030.0,-12.77,-39.85,-40.41,0,*69
1520049915.71,16039,8.38,71030.8,-12.77,-39.65,-40.21,0,*60
1520049917.0,16040,8.38,71024.3,-12.75,-39.53,-40.09,0,*63
1520049918.29,16041,8.38,71024.5,-12.75,-39.41,-39.97,0,*68
1520049919.58,16042,8.38,71026.8,-12.75,-39.53,-40.09,0,*61
1520049920.84,16043,8.38,71024.0,-12.75,-39.35,-39.97,0,*69
1520049922.11,16044,8.38,71022.3,-12.73,-39.41,-40.09,0,*62
1520049923.32,16045,8.38,71020.3,-12.69,-39.47,-40.03,0,*64
1520049924.54,16046,8.38,71018.0,-12.69,-39.47,-40.03,0,*67
1520049925.81,16047,8.38,71026.0,-12.73,-39.41,-40.09,0,*61
1520049927.06,16048,8.38,71030.5,-12.73,-39.29,-39.97,0,*69
1520049928.3,16049,8.38,71014.5,-12.69,-39.03,-39.35,0,*63
1520049929.51,16050,8.38,71014.3,-12.69,-38.85,-39.35,0,*64
1520049930.75,16051,8.38,71014.0,-12.69,-39.29,-39.91,0,*6C
1520049931.99,16052,8.38,71012.5,-12.67,-39.65,-40.29,0,*64
1520049933.22,16053,8.38,71016.0,-12.67,-39.91,-40.53,0,*63
1520049934.44,16054,8.38,71022.5,-12.67,-40.03,-40.53,0,*61
1520049935.68,16055,8.38,71016.0,-12.67,-39.53,-40.03,0,*6E
1520049936.95,16056,8.38,71022.3,-12.67,-39.53,-40.21,0,*6D
1520049938.22,16057,8.38,71022.0,-12.67,-39.29,-39.71,0,*6A
1520049939.44,16058,8.38,71020.3,-12.67,-39.35,-39.91,0,*66
1520049940.65,16059,8.38,71020.3,-12.67,-39.47,-40.03,0,*67
1520049941.9,16060,8.38,71024.0,-12.67,-39.47,-39.97,0,*6E
1520049943.14,16061,8.38,71028.8,-12.67,-39.53,-40.03,0,*69
1520049944.41,16062,8.38,71024.8,-12.67,-39.41,-39.97,0,*6A
1520049945.66,16063,8.38,71024.8,-12.67,-39.59,-40.15,0,*66
1520049946.91,16064,8.38,71022.8,-12.67,-39.59,-40.03,0,*66
1520049948.16,16065,8.38,71018.3,-12.67,-39.59,-40.03,0,*67
1520049949.43,16066,8.38,71018.5,-12.67,-39.41,-39.97,0,*6E
1520049950.67,16067,8.38,71016.0,-12.67,-39.29,-39.85,0,*62
1520049951.94,16068,8.38,71020.0,-12.65,-39.29,-39.65,0,*61
1520049953.23,16069,8.38,71024.0,-12.65,-39.23,-39.79,0,*67
1520049954.51,16070,8.38,71024.3,-12.63,-39.23,-39.79,0,*69
1520049955.78,16071,8.38,71026.5,-12.63,-39.23,-39.79,0,*68
1520049957.08,16072,8.38,71012.5,-12.65,-39.41,-39.97,0,*69
1520049958.3,16073,8.38,71014.8,-12.63,-39.35,-39.91,0,*6B
1520049959.52,16074,8.38,71014.0,-12.63,-39.35,-39.91,0,*6C
1520049960.79,16075,8.38,71010.0,-12.63,-39.41,-39.97,0,*68
1520049962.06,16076,8.38,71020.0,-12.59,-39.53,-39.97,0,*61
1520049963.34,16077,8.38,71014.3,-12.63,-39.53,-40.09,0,*60
1520049964.59,16078,8.38,71012.0,-12.63,-39.59,-40.15,0,*68
1520049965.87,16079,8.38,71016.5,-12.63,-39.59,-39.97,0,*6D
1520049967.15,16080,8.38,71012.5,-12.63,-39.41,-40.09,0,*6B
1520049968.42,16081,8.38,71022.5,-12.59,-39.53,-40.09,0,*60
1520049969.69,16082,8.38,71020.3,-12.63,-39.53,-39.97,0,*63
1520049970.96,16083,8.38,71016.5,-12.59,-39.53,-39.97,0,*6B
1520049972.23,16084,8.38,71012.3,-12.59,-39.53,-40.09,0,*65
1520049973.52,16085,8.38,71014.3,-12.63,-39.59,-40.21,0,*6D
1520049974.8,16086,8.38,71012.8,-12.63,-39.59,-40.21,0,*6E
1520049976.05,16087,8.38,71018.5,-12.63,-39.71,-40.35,0,*60
1520049977.3,16088,8.38,71016.8,-12.59,-39.97,-40.53,0,*6E
1520049978.57,16089,8.38,71010.8,-12.63,-39.97,-40.59,0,*6C
1520049979.82,16090,8.38,71012.8,-12.63,-40.15,-40.79,0,*62
1520049981.11,16091,8.38,71004.3,-12.65,-40.29,-40.79,0,*6A
1520049982.34,16092,8.38,71020.5,-12.63,-40.15,-40.73,0,*6A
1520049983.61,16093,8.38,71018.3,-12.65,-40.03,-40.59,0,*62
1520049984.85,16094,8.38,71008.8,-12.65,-40.03,-40.65,0,*6A
1520049986.14,16095,8.38,71014.0,-12.65,-40.21,-40.79,0,*66
1520049987.43,16096,8.38,71024.8,-12.65,-40.29,-40.85,0,*6E
1520049988.72,16097,8.38,71022.5,-12.65,-40.29,-40.79,0,*6C
1520049990.01,16098,8.38,71030.3,-12.65,-40.29,-40.85,0,*60
1520049991.29,16099,8.38,71024.0,-12.65,-40.15,-40.59,0,*6F
1520049992.58,16100,8.38,71018.8,-12.65,-39.97,-40.41,0,*63
1520049993.85,16101,8.38,71026.5,-12.65,-39.97,-40.47,0,*64
1520049995.09,16102,8.38,71028.5,-12.65,-40.15,-40.47,0,*63
1520049996.37,16103,8.38,71028.5,-12.65,-40.15,-40.59,0,*6D
1520049997.6,16104,8.38,71024.8,-12.67,-40.15,-40.65,0,*67
1520049998.85,16105,8.38,71028.3,-12.67,-40.09,-40.47,0,*6B
1520050000.07,16106,8.38,71026.5,-12.67,-39.91,-40.47,0,*67
1520050001.32,16107,8.38,71020.8,-12.67,-39.65,-40.21,0,*6D
1520050002.57,16108,8.38,71012.3,-12.67,-39.65,-40.21,0,*62
1520050003.78,16109,8.38,71014.8,-12.67,-40.03,-40.47,0,*6D
1520050005.02,16110,8.38,71018.0,-12.67,-40.21,-40.53,0,*60
1520050006.26,16111,8.38,71014.8,-12.67,-40.29,-40.73,0,*6B
1520050007.5,16112,8.44,71020.3,-12.67,-40.29,-40.73,0,*68
1520050008.72,16113,8.38,71016.3,-12.67,-40.35,-40.65,0,*63
1520050009.96,16114,8.38,71024.5,-12.67,-40.29,-40.65,0,*69
1520050011.18,16115,8.38,71030.5,-12.67,-40.35,-40.73,0,*62
1520050012.42,16116,8.38,71036.0,-12.67,-40.29,-40.73,0,*6C
1520050013.64,16117,8.38,71032.5,-12.67,-40.03,-40.53,0,*67
1520050014.88,16118,8.38,71026.5,-12.67,-39.85,-40.21,0,*6D
1520050016.14,16119,8.38,71020.5,-12.67,-39.65,-40.09,0,*68
1520050017.41,16120,8.38,71018.8,-12.73,-39.59,-40.09,0,*68
1520050018.66,16121,8.38,71018.0,-12.69,-39.65,-40.09,0,*6D
1520050019.9,16122,8.38,71022.3,-12.67,-40.09,-40.35,0,*6B
1520050021.14,16123,8.38,71012.8,-12.67,-40.21,-40.65,0,*65
1520050022.39,16124,8.38,71014.8,-12.69,-40.09,-40.53,0,*63
1520050023.63,16125,8.38,71020.8,-12.69,-40.09,-40.53,0,*62
1520050024.88,16126,8.38,71026.3,-12.69,-40.09,-40.53,0,*61
1520050026.14,16127,8.38,71028.0,-12.69,-40.29,-40.59,0,*68
1520050027.38,16128,8.38,71022.0,-12.69,-40.21,-40.53,0,*65
1520050028.59,16129,8.38,71026.0,-12.69,-40.03,-40.35,0,*64
1520050029.83,16130,8.38,71026.0,-12.73,-39.71,-40.15,0,*6E
1520050031.1,16131,8.38,71020.3,-12.73,-39.41,-39.79,0,*68
1520050032.31,16132,8.38,71020.5,-12.69,-39.47,-39.85,0,*65
1520050033.56,16133,8.38,71018.5,-12.69,-39.15,-39.65,0,*6D
1520050034.83,16134,8.38,71014.5,-12.69,-39.29,-39.71,0,*60
1520050036.04,16135,8.38,71008.0,-12.69,-39.35,-39.85,0,*67
1520050037.25,16136,8.38,71010.5,-12.69,-39.65,-40.03,0,*61
1520050038.53,16137,8.38,71012.3,-12.69,-39.71,-40.09,0,*6F
1520050039.8,16138,8.38,71022.0,-12.67,-39.71,-40.21,0,*64
1520050041.04,16139,8.38,71028.3,-12.69,-39.85,-40.21,0,*60
1520050042.26,16140,8.38,71026.5,-12.69,-39.65,-40.03,0,*60
1520050043.48,16141,8.38,71022.3,-12.67,-39.65,-40.03,0,*6F
1520050044.76,16142,8.38,71030.3,-12.67,-39.71,-40.09,0,*63
1520050046.03,16143,8.38,71030.8,-12.67,-39.71,-40.21,0,*68
1520050047.28,16144,8.38,71022.3,-12.67,-39.91,-40.21,0,*61
1520050048.53,16145,8.38,71018.0,-12.69,-39.91,-40.21,0,*6E
1520050049.77,16146,8.38,71014.5,-12.69,-39.85,-40.09,0,*62
1520050051.05,16147,8.38,71012.3,-12.69,-39.71,-40.09,0,*68
1520050052.29,16148,8.38,71018.0,-12.69,-39.91,-40.09,0,*69
1520050053.57,16149,8.38,71022.3,-12.69,-39.71,-40.09,0,*66
1520050054.83,16150,8.38,71024.5,-12.73,-39.71,-39.97,0,*6C
1520050056.07,16151,8.38,71032.5,-12.69,-39.35,-39.71,0,*6E
1520050057.34,16152,8.38,71030.3,-12.69,-39.03,-39.29,0,*65
1520050058.55,16153,8.38,71028.8,-12.69,-39.09,-39.47,0,*66
1520050059.81,16154,8.38,71026.3,-12.69,-39.03,-39.29,0,*63
1520050061.05,16155,8.38,71018.5,-12.67,-38.67,-38.97,0,*6B
1520050062.29,16156,8.38,71010.8,-12.67,-38.85,-39.03,0,*68
1520050063.53,16157,8.38,71006.8,-12.67,-38.97,-39.23,0,*68
1520050064.77,16158,8.38,71012.8,-12.67,-38.85,-39.03,0,*66
1520050066.04,16159,8.38,71008.8,-12.67,-39.23,-39.41,0,*6C
1520050067.31,16160,8.38,71008.0,-12.67,-39.41,-39.79,0,*69
1520050068.56,16161,8.38,71004.5,-12.67,-39.41,-39.65,0,*65
1520050069.83,16162,8.38,71010.0,-12.67,-39.41,-39.79,0,*6B
1520050071.08,16163,8.44,71016.0,-12.67,-39.41,-39.65,0,*67
1520050072.33,16164,8.38,71010.0,-12.67,-39.47,-39.79,0,*6B
1520050073.6,16165,8.38,71010.3,-12.67,-39.59,-39.97,0,*65
1520050074.9,16166,8.38,71006.0,-12.65,-39.59,-39.97,0,*64
1520050076.18,16167,8.38,71006.0,-12.65,-39.79,-40.03,0,*64
1520050077.46,16168,8.38,71004.8,-12.67,-39.79,-40.09,0,*63
1520050078.7,16169,8.38,71000.5,-12.67,-40.03,-40.21,0,*6B
1520050079.92,16170,8.38,71004.5,-12.67,-39.85,-40.03,0,*63
1520050081.17,16171,8.38,71010.5,-12.67,-39.85,-40.09,0,*68
1520050082.41,16172,8.38,71010.0,-12.67,-39.97,-40.15,0,*65
1520050083.65,16173,8.38,71012.8,-12.67,-40.03,-40.21,0,*60
1520050084.9,16174,8.38,71016.5,-12.67,-39.97,-40.15,0,*63
1520050086.15,16175,8.38,71020.0,-12.67,-39.79,-40.03,0,*65
1520050087.39,16176,8.38,71022.0,-12.67,-39.71,-40.03,0,*6E
1520050088.61,16177,8.38,71032.5,-12.67,-39.85,-40.03,0,*64
1520050089.84,16178,8.38,71032.3,-12.67,-39.65,-39.91,0,*60
1520050091.08,16179,8.38,71026.5,-12.67,-39.53,-39.85,0,*61
1520050092.32,16180,8.38,71030.3,-12.67,-39.47,-39.71,0,*69
1520050093.55,16181,8.38,71024.8,-12.67,-39.47,-39.65,0,*6D
1520050094.8,16182,8.38,71026.3,-12.67,-39.47,-39.71,0,*6B
1520050096.01,16183,8.38,71026.0,-12.67,-39.85,-40.03,0,*6F
1520050097.26,16184,8.38,71026.3,-12.67,-39.71,-40.03,0,*63
1520050098.51,16185,8.38,71022.0,-12.67,-39.65,-39.97,0,*64